Location: Doazon
(43.4500°N, 0.5500°W)
Time: 15:00:22
(UTC+00:00)

CZ-2D R/B - Pass Details

Date: 05 December 2025
Orbit: 397 x 403 km, 97.4° (Epoch: 18 January)

Event Time Altitude Azimuth Distance (km) Brightness Sun altitude
Rises 16:56:43 0° 138° (SE) 2,306 6.3 -5.7°
Reaches altitude 10° 16:58:56 10° 123° (ESE) 1,456 5.2 -6.1°
Maximum altitude 17:01:25 22° 70° (ENE) 940 3.9 -6.5°
Drops below altitude 10° 17:03:55 10° 17° (NNE) 1,476 5.1 -6.9°
Sets 17:06:11 0° 2° (N) 2,347 6.3 -7.3°
